GW6463 Weather Reports


time (UTC)temp
C
wind
direction
speed
KPH
gust
KPH
rain 1hr
cm
rain 24hr
cm
rain mn
cm
humidity
%
barometer
mb
20260509212919 18 321 1.6 4.8 0.00 0.00 0.00 79 1010.7
20260509211805 18 299 1.6 6.4 0.00 0.00 0.00 80 1010.6
20260509210904 18 304 1.6 6.4 0.00 0.00 0.00 81 1010.6
20260509210005 18 321 3.2 6.4 0.00 0.00 0.00 82 1010.7
20260509205408 18 327 1.6 6.4 0.00 0.00 0.00 82 1010.7
20260509204504 18 315 1.6 4.8 0.00 0.00 0.00 83 1010.8
20260509203605 18 355 1.6 6.4 0.00 0.00 0.00 83 1011.1
20260509202705 18 339 1.6 4.8 0.00 0.00 0.00 83 1011.2
20260509201805 18 337 1.6 6.4 0.00 0.00 0.00 83 1011.1
20260509201117 18 340 1.6 6.4 0.00 0.00 0.00 83 1011.2
20260509200009 18 325 1.6 9.7 0.00 0.00 0.00 82 1011.2
20260509195410 18 319 1.6 9.7 0.00 0.00 0.00 82 1011.1
20260509194505 18 332 1.6 4.8 0.00 0.00 0.00 82 1011.3
20260509193818 18 321 1.6 9.7 0.00 0.00 0.00 82 1011.3
20260509192709 19 314 1.6 4.8 0.00 0.00 0.00 81 1011.4
20260509191803 19 322 1.6 9.7 0.00 0.00 0.00 81 1011.3
20260509190903 19 301 1.6 9.7 0.00 0.00 0.00 81 1011.6
20260509190014 19 310 1.6 9.7 0.00 0.00 0.00 81 1011.7
20260509185406 19 324 1.6 9.7 0.00 0.00 0.00 81 1011.5
20260509184505 19 344 1.6 6.4 0.00 0.00 0.00 81 1011.8
20260509183822 19 349 1.6 6.4 0.00 0.00 0.00 81 1011.7
20260509182710 19 7 1.6 6.4 0.00 0.00 0.00 82 1011.9
20260509181818 19 13 1.6 6.4 0.00 0.00 0.00 82 1011.7
20260509180010 19 317 1.6 4.8 0.00 0.00 0.00 81 1011.8
20260509175623 19 316 1.6 6.4 0.00 0.00 0.00 81 1011.8
20260509174505 19 12 1.6 6.4 0.00 0.00 0.00 81 1011.8
20260509173608 19 29 1.6 6.4 0.00 0.00 0.00 81 1011.5
20260509172707 19 25 1.6 6.4 0.00 0.00 0.00 81 1011.7
20260509171808 19 3 1.6 3.2 0.00 0.00 0.00 80 1011.7
20260509170906 19 15 1.6 4.8 0.00 0.00 0.00 80 1011.6
20260509170005 19 6 1.6 4.8 0.00 0.00 0.00 80 1011.7
20260509165404 19 308 0.0 1.6 0.00 0.00 0.00 79 1012.0
20260509164505 19 315 0.0 4.8 0.00 0.00 0.00 79 1011.8
20260509163823 19 322 0.0 3.2 0.00 0.00 0.00 79 1011.6
20260509162706 19 21 0.0 4.8 0.00 0.00 0.00 79 1011.5
20260509162020 19 43 0.0 4.8 0.00 0.00 0.00 79 1011.5
20260509160906 19 39 1.6 4.8 0.00 0.00 0.00 78 1011.2
20260509160005 19 41 1.6 6.4 0.00 0.00 0.00 77 1011.1
20260509155620 19 36 1.6 6.4 0.00 0.00 0.00 77 1011.2
20260509154719 19 36 0.0 4.8 0.00 0.00 0.00 77 1011.2
20260509153605 19 105 0.0 4.8 0.00 0.00 0.00 77 1010.8
20260509152704 20 72 0.0 4.8 0.00 0.00 0.00 77 1011.2
20260509152020 20 58 1.6 4.8 0.00 0.00 0.00 76 1011.1
20260509150906 20 87 1.6 3.2 0.00 0.00 0.00 76 1011.1
20260509150004 20 57 1.6 4.8 0.00 0.00 0.00 76 1011.4
20260509145406 20 81 1.6 11.3 0.00 0.00 0.00 75 1011.1
20260509144512 21 102 1.6 11.3 0.00 0.00 0.00 73 1011.1
20260509143609 21 94 1.6 9.7 0.00 0.00 0.00 69 1011.3
20260509142707 22 86 1.6 4.8 0.00 0.00 0.00 67 1010.8
20260509141805 22 65 1.6 11.3 0.00 0.00 0.00 67 1011.0
20260509140905 22 81 1.6 6.4 0.00 0.00 0.00 65 1011.0
20260509140005 22 87 1.6 6.4 0.00 0.00 0.00 65 1011.0
20260509135619 22 104 1.6 9.7 0.00 0.00 0.00 65 1011.1
20260509134503 22 95 3.2 9.7 0.00 0.00 0.00 65 1011.1
20260509133605 22 75 1.6 4.8 0.00 0.00 0.00 65 1010.8
20260509132917 22 117 1.6 9.7 0.00 0.00 0.00 64 1010.8
20260509131807 22 77 1.6 9.7 0.00 0.00 0.00 64 1010.8
20260509131120 22 98 3.2 9.7 0.00 0.00 0.00 65 1011.1
20260509130009 22 112 3.2 11.3 0.00 0.00 0.00 65 1011.2
20260509125405 22 106 3.2 11.3 0.00 0.00 0.00 66 1011.0
20260509124505 22 101 1.6 11.3 0.00 0.00 0.00 65 1011.2
20260509123604 22 42 1.6 6.4 0.00 0.00 0.00 66 1011.4
20260509122705 23 69 1.6 11.3 0.00 0.00 0.00 62 1011.3
20260509121805 22 99 3.2 12.9 0.00 0.00 0.00 65 1011.4
20260509121118 22 92 1.6 11.3 0.00 0.00 0.00 63 1011.3
20260509120219 22 105 3.2 11.3 0.00 0.00 0.00 63 1011.2
20260509115404 23 84 1.6 11.3 0.00 0.00 0.00 65 1011.1
20260509114718 23 105 3.2 12.9 0.00 0.00 0.00 62 1011.3
20260509113605 23 97 1.6 11.3 0.00 0.00 0.00 60 1011.7
20260509112704 23 90 3.2 12.9 0.00 0.00 0.00 61 1011.7
20260509111803 22 102 1.6 9.7 0.00 0.00 0.00 61 1011.9
20260509110905 23 79 3.2 9.7 0.00 0.00 0.00 58 1012.0
20260509110005 23 126 3.2 9.7 0.00 0.00 0.00 57 1012.1
20260509105618 23 109 1.6 9.7 0.00 0.00 0.00 57 1012.0
20260509104720 23 100 1.6 6.4 0.00 0.00 0.00 56 1012.1
20260509103605 24 82 1.6 6.4 0.00 0.00 0.00 55 1012.5
20260509102946 24 86 1.6 11.3 0.00 0.00 0.00 55 1012.6
20260509101803 25 109 1.6 9.7 0.00 0.00 0.00 54 1012.8
20260509100905 25 80 1.6 9.7 0.00 0.00 0.00 53 1012.9
20260509100005 25 89 1.6 6.4 0.00 0.00 0.00 51 1013.0
20260509095405 25 60 1.6 6.4 0.00 0.00 0.00 49 1013.2
20260509094505 25 95 1.6 11.3 0.00 0.00 0.00 53 1013.2
20260509093605 25 38 1.6 9.7 0.00 0.00 0.00 53 1013.3
20260509092707 24 154 3.2 9.7 0.00 0.00 0.00 55 1013.3
20260509091803 23 98 1.6 4.8 0.00 0.00 0.00 54 1013.5
20260509090905 23 85 1.6 4.8 0.00 0.00 0.00 56 1013.6
20260509090007 23 124 0.0 4.8 0.00 0.00 0.00 57 1013.6
20260509085405 23 117 1.6 4.8 0.00 0.00 0.00 59 1013.7
20260509084504 23 73 1.6 6.4 0.00 0.00 0.00 58 1013.8
20260509083605 23 96 1.6 6.4 0.00 0.00 0.00 62 1014.1
20260509082920 23 80 1.6 4.8 0.00 0.00 0.00 59 1013.9
20260509081805 23 44 1.6 4.8 0.00 0.00 0.00 58 1014.1
20260509080904 23 55 1.6 4.8 0.00 0.00 0.00 60 1014.1
20260509080004 22 117 1.6 4.8 0.00 0.00 0.00 62 1014.5
20260509075405 22 31 1.6 4.8 0.00 0.00 0.00 61 1014.5
20260509074504 23 33 1.6 3.2 0.00 0.00 0.00 57 1014.5
20260509073605 23 79 0.0 3.2 0.00 0.00 0.00 56 1014.5
20260509072705 23 68 1.6 3.2 0.00 0.00 0.00 58 1014.5
20260509071804 22 46 0.0 3.2 0.00 0.00 0.00 59 1014.6
20260509070905 22 37 0.0 4.8 0.00 0.00 0.00 62 1014.7
20260509070219 22 35 0.0 3.2 0.00 0.00 0.00 64 1014.6
20260509065405 22 28 0.0 4.8 0.00 0.00 0.00 65 1014.5
20260509064503 21 352 1.6 3.2 0.00 0.00 0.00 67 1014.4
20260509063605 21 17 0.0 3.2 0.00 0.00 0.00 67 1014.2
20260509062705 20 351 0.0 3.2 0.00 0.00 0.00 70 1014.3
20260509061804 19 342 1.6 4.8 0.00 0.00 0.00 72 1014.4
20260509061119 19 340 1.6 6.4 0.00 0.00 0.00 73 1014.1
20260509060005 18 339 1.6 4.8 0.00 0.00 0.00 75 1014.6
20260509055405 17 345 0.0 3.2 0.00 0.00 0.00 78 1014.3
20260509054505 17 339 0.0 1.6 0.00 0.00 0.00 79 1014.1
20260509053605 17 334 0.0 3.2 0.00 0.00 0.00 78 1014.0
20260509052704 17 317 0.0 1.6 0.00 0.00 0.00 79 1013.8
20260509051809 17 292 0.0 1.6 0.00 0.00 0.00 82 1013.8
20260509050903 16 236 0.0 1.6 0.00 0.00 0.00 84 1013.8
20260509050005 15 245 0.0 1.6 0.00 0.00 0.00 87 1014.0
20260509045403 15 292 0.0 1.6 0.00 0.00 0.00 87 1013.8
20260509044504 15 277 0.0 1.6 0.00 0.00 0.00 87 1013.8
20260509043603 15 0 0.0 0.0 0.00 0.00 0.00 88 1013.6
20260509042703 15 0 0.0 0.0 0.00 0.00 0.00 88 1013.6
20260509042019 15 259 0.0 1.6 0.00 0.00 0.00 89 1013.8
20260509040903 15 313 0.0 1.6 0.00 0.00 0.00 89 1013.7
20260509040220 15 318 0.0 1.6 0.00 0.00 0.00 89 1013.5
20260509035405 15 0 0.0 0.0 0.00 0.00 0.00 89 1013.5
20260509034503 16 0 0.0 0.0 0.00 0.00 0.00 89 1013.4
20260509033605 16 0 0.0 0.0 0.00 0.00 0.00 89 1013.3
20260509032704 15 0 0.0 0.0 0.00 0.00 0.00 90 1013.0
20260509032019 15 317 0.0 1.6 0.00 0.00 0.00 89 1013.4
20260509030905 15 0 0.0 0.0 0.00 0.00 0.00 89 1013.4
20260509030005 15 0 0.0 0.0 0.00 0.00 0.00 89 1013.3
20260509025405 15 0 0.0 0.0 0.00 0.00 0.00 88 1013.2
20260509024505 15 323 0.0 1.6 0.00 0.00 0.00 88 1013.3
20260509023604 15 317 0.0 1.6 0.00 0.00 0.00 88 1013.2
20260509022705 15 0 0.0 0.0 0.00 0.00 0.00 88 1013.3
20260509022019 16 324 0.0 3.2 0.00 0.00 0.00 87 1013.4
20260509020903 16 323 0.0 1.6 0.00 0.00 0.00 86 1013.4
20260509020005 16 230 0.0 1.6 0.00 0.00 0.00 85 1013.5
20260509015405 16 210 0.0 1.6 0.00 0.00 0.00 84 1013.4
20260509014505 16 0 0.0 0.0 0.00 0.00 0.00 84 1013.3
20260509013605 17 0 0.0 0.0 0.00 0.00 0.00 83 1013.4
20260509012705 17 318 0.0 1.6 0.00 0.00 0.00 82 1013.4
20260509011804 17 322 0.0 1.6 0.00 0.00 0.00 81 1013.6
20260509011120 17 0 0.0 0.0 0.00 0.00 0.00 80 1013.5
20260509010004 17 0 0.0 0.0 0.00 0.00 0.00 81 1013.6
20260509005404 17 329 0.0 1.6 0.00 0.00 0.00 81 1013.7
20260509004504 17 311 0.0 1.6 0.00 0.00 0.00 82 1013.7
20260509003605 17 0 0.0 0.0 0.00 0.00 0.00 82 1013.5
20260509002705 17 0 0.0 0.0 0.00 0.00 0.00 81 1013.8
20260509001805 17 0 0.0 0.0 0.00 0.00 0.00 80 1013.7
20260509000905 17 0 0.0 0.0 0.00 0.00 0.00 79 1013.6
20260509000219 17 0 0.0 0.0 0.00 0.00 0.00 79 1013.8
20260508235620 17 0 0.0 0.0 0.00 0.00 0.00 79 1013.6
20260508234505 17 0 0.0 0.0 0.00 0.00 0.00 79 1014.0
20260508233605 17 0 0.0 0.0 0.00 0.00 0.00 79 1013.6
20260508232704 17 0 0.0 0.0 0.00 0.00 0.00 78 1013.7
20260508231805 17 325 0.0 1.6 0.00 0.00 0.00 78 1013.9
20260508231119 17 325 0.0 1.6 0.00 0.00 0.00 78 1013.8
20260508230005 17 0 0.0 0.0 0.00 0.00 0.00 78 1013.9
20260508225618 17 325 0.0 1.6 0.00 0.00 0.00 78 1013.9
20260508224504 17 323 0.0 1.6 0.00 0.00 0.00 77 1013.9
20260508223603 17 324 0.0 1.6 0.00 0.00 0.00 78 1014.2
20260508222704 17 326 0.0 1.6 0.00 0.00 0.00 79 1014.2
20260508221803 17 0 0.0 0.0 0.00 0.00 0.00 78 1014.2
20260508221118 17 0 0.0 0.0 0.00 0.00 0.00 79 1014.3
20260508220005 17 0 0.0 0.0 0.00 0.00 0.00 78 1014.2
20260508215405 17 0 0.0 0.0 0.00 0.00 0.00 78 1014.3
20260508214503 17 0 0.0 0.0 0.00 0.00 0.00 79 1014.5
20260508213607 17 0 0.0 0.0 0.00 0.00 0.00 78 1014.5